Regional Weather Roundup
Issued by NWS Upton, NY

Current Version | Previous Version | Graphics & Text | Print | Product List | Glossary Off
Versions: 1 2 3 4 5 6 7 8 9 10 11 12 13 14 15 16 17 18 19 20 21 22 23 24 25 26 27 28 29 30 31 32 33 34 35 36 37 38 39 40 41 42 43 44 45 46 47 48 49 50

000
ASUS41 KOKX 260007
RWROKX

REGIONAL WEATHER ROUNDUP
NATIONAL WEATHER SERVICE NEW YORK NY
800 PM EDT WED MAR 25 2015

NOTE: "FAIR" INDICATES FEW OR NO CLOUDS BELOW 12,000 FEET WITH NO
SIGNIFICANT WEATHER AND/OR OBSTRUCTIONS TO VISIBILITY.

NYZ071-072-176-178-NJZ106-104-260100-
NEW YORK CITY METRO AREA


CITY           SKY/WX    TMP DP  RH WIND       PRES   REMARKS
CENTRAL PARK   LGT RAIN  41  35  79 VRB5      30.28R
LAGUARDIA APRT LGT RAIN  42  35  76 S6        30.26R
KENNEDY INTL   LGT RAIN  41  35  79 CALM      30.27R
NEWARK/LIBERTY LGT RAIN  39  35  86 SE3       30.25F FOG
BRNX BOT. GARD   N/A     39  36  87 SE3       30.28R
TETERBORO      LGT RAIN  40  35  83 S6        30.24S
$$

NYZ177-179-078>081-260100-
LONG ISLAND NEW YORK

CITY           SKY/WX    TMP DP  RH WIND       PRES   REMARKS
FARMINGDALE    CLOUDY    40  35  83 SE6       30.25F
ISLIP          CLOUDY    40  34  79 SE9       30.23F WCI  34
SHIRLEY        CLOUDY    40  34  79 SE6       30.26F
WESTHAMPTON    CLOUDY    39  34  82 SE6       30.26F WCI  35
MONTAUK POINT    N/A     39  34  82 SE5       30.28F
$$

NYZ052-065-067-260100-
HUDSON VALLEY

CITY           SKY/WX    TMP DP  RH WIND       PRES   REMARKS
WHITE PLAINS   LGT RAIN  36  34  92 CALM      30.24R FOG
NEWBURGH       LGT RAIN  36  34  93 VRB5      30.23S FOG     WCI  32
MONTGOMERY     MIX PCPN  36  33  89 CALM      30.21S
POUGHKEEPSIE   LGT RAIN  37  33  85 S3        30.23F FOG
ALBANY         LGT RAIN  37  30  75 S17G29    30.13F WCI  27
$$

NJZ001-105-106-008-010-013-015-019>022-104-260100-
NEW JERSEY

CITY           SKY/WX    TMP DP  RH WIND       PRES   REMARKS
NEWARK/LIBERTY LGT RAIN  39  35  86 SE3       30.25F FOG
TETERBORO      LGT RAIN  40  35  83 S6        30.24S
CALDWELL       CLOUDY    38  33  82 S5        30.25S WCI  34
MORRISTOWN     DRIZZLE   39  36  87 E5        30.25F
SOMERVILLE     CLOUDY    39  37  92 CALM      30.23F
SUSSEX         CLOUDY    36  33  89 CALM      30.22S
ANDOVER          N/A     36  34  92 CALM      30.21F
TRENTON        LGT RAIN  39  36  89 CALM      30.23F
MILLVILLE      LGT RAIN  45  40  82 CALM      30.22F
ATLANTIC CITY  CLOUDY    47  41  80 S5        30.20F
WRIGHTSTOWN    CLOUDY    39  39 100 E3        30.21F
TOMS RIVER     CLOUDY    43  39  87 NW12      30.25R
BELMAR         CLOUDY    41  36  81 S5        30.23S
$$

PAZ047>061-062-071-260100-
EASTERN PENNSYLVANIA

CITY           SKY/WX    TMP DP  RH WIND       PRES   REMARKS
PHILADELPHIA   LGT RAIN  44  38  79 E5        30.24S
ALLENTOWN      CLOUDY    38  34  85 CALM      30.22F
SCRANTON       CLOUDY    39  31  72 S12G17    30.15F WCI  32
$$

CTZ002-004>006-009-010-012-RIZ004-006-007-MAZ004-011-015-260100-
SOUTHERN NEW ENGLAND
 IN CT

CITY           SKY/WX    TMP DP  RH WIND       PRES   REMARKS
BRADLEY INTL   CLOUDY    36  31  82 S10       30.23F WCI  28
HARTFORD       CLOUDY    36  32  85 S6        30.25F WCI  31
DANBURY        LGT RAIN  35  31  85 S6        30.25S WCI  30
WTRBRY/OXFORD  LGT RAIN  36  28  75 S10       30.23F FOG     WCI  28
BRIDGEPORT     CLOUDY    38  34  85 E7        30.26S WCI  33
MERIDEN        LGT RAIN  36  33  89 SE3       30.26F
NEW HAVEN      MIX PCPN  37  33  85 SE5       30.27F WCI  33
CHESTER        CLOUDY    36  34  93 CALM      30.27F
GROTON         LGT RAIN  37  33  85 S5        30.27F WCI  33
WILLIMANTIC    LGT RAIN  37  32  82 S3        30.27F

 IN RI

CITY           SKY/WX    TMP DP  RH WIND       PRES   REMARKS
PROVIDENCE     LGT RAIN  37  30  75 S10       30.30S WCI  30
BLOCK ISLAND   CLOUDY    37  32  81 S9        30.28F WCI  31
WESTERLY       LGT RAIN  37  34  89 SE7       30.29F WCI  32

 IN MA

CITY           SKY/WX    TMP DP  RH WIND       PRES   REMARKS
BOSTON         LGT RAIN  39  25  57 SW15      30.26S WCI  31
WORCESTER      FRZ RAIN  33  28  81 SW15      30.20F WCI  23
WESTFIELD      RAIN      35  30  82 S8        30.23F WCI  29
PROVINCETOWN   MOCLDY    37  27  65 S13       30.29F WCI  29
NANTUCKET      FAIR      36  31  82 S9        30.33F WCI  29
$$

ANZ330-335-338-340-345-350-353-355-260100-
COASTAL MARINE OBSERVATIONS


STATION/POSITION TIME  SKY/WX   TEMP    WIND        PRES    VSBY  WAVE
                                AIR SEA DIR/SP/G                  HT/PER
                 (UTC)          (F)     (DEG/KT/KT) (MB)    (MI)  (FT/S)
NY HARB ENTRANCE 2350            40 38  100/  6/  8 1023.8          1/ 8
4S FIRE IS       2303               37                N/A           1/ 8
20S FIRE ISLAND  2250               38              1025.1          1/ 7
23SW MTP         2350                                 N/A           1/ 8
HUDSON CANYON    NOT AVBL
EXECUTION ROCKS  NOT AVBL
WESTERN LI SOUND NOT AVBL
CENTRAL LI SOUND NOT AVBL
EASTERN LI SOUND NOT AVBL
ROBBINS REEF     2300            39     140/ 11/ 13 1022.8
$$


>>>>>>>>>>>>>>>>>>>>>>>>>>>> KEY <<<<<<<<<<<<<<<<<<<<<<<<<<<
>                                                          <
>     SKY/WX - SKY CONDITION/PRESENT WEATHER               <
>     TMP    - TEMPERATURE IN FAHRENHEIT                   <
>     DP     - DEWPOINT IN FAHRENHEIT                      <
>     RH     - RELATIVE HUMIDITY IN PERCENT                <
>     WIND   - DIRECTION AND SPEED IN MPH                  <
>     PRES   - MEAN SEA LEVEL PRESSURE IN INCHES OF HG     <
>     WCI    - WIND CHILL INDEX                            <
>     VSB    - VISIBILITY IN MILES                         <
>     HX     - HEAT INDEX                                  <
>     TC     - TEMPERATURE IN CELSIUS                      <
>     VRB    - VARIABLE WIND DIRECTION                     <
>                                                          <
>>>>>>>>>>>>>>>>>>>>>>>>>>>> KEY <<<<<<<<<<<<<<<<<<<<<<<<<<<




USA.gov is the U.S. government's official web portal to all federal, state and local government web resources and services.